Tracking 25612 objects as of 20-May-2022
HD Live streaming from Space Station
objects crossing your sky now

THOR BURNER 2 R/B

Track THOR BURNER 2 R/B now!
10-day predictions


NORAD ID: 2940
Int'l Code: 1967-080B
Perigee: 817.0 km
Apogee: 871.6 km
Inclination: 98.7 °
Period: 101.7 minutes
Semi major axis: 7215 km
RCS: 1.65 m2 (large)
Launch date: August 23, 1967
Source: United States (US)
Launch site: AIR FORCE WESTERN TEST RANGE (AFWTR)

Note: This is a ROCKET BODY
aabbcc
Your satellite tracking list
Your tracking list is empty




NASA's NSSDC Master Catalog

Two Line Element Set (TLE):
1 02940U 67080B   22139.87314099  .00000166  00000-0  10387-3 0  9999
2 02940  98.6522 358.2363 0037818 170.6056 189.5834 14.16524991824083
Source of the keplerian elements: AFSPC